Location: Blandford
(50.8667°N, 2.1667°W)
Time: 06:00:17
(UTC+00:00)

ATLAS CENTAUR R/B - Pass Details

Date: 09 April 2020
Orbit: 471 x 675 km, 64.7° (Epoch: 01 June)

Event Time Altitude Azimuth Distance (km) Brightness Sun altitude
Rises 20:14:15 0° 320° (NW) 2,724 6.3 -12.4°
Reaches altitude 10° 20:16:51 10° 335° (NNW) 1,789 4.8 -12.7°
Maximum altitude 20:20:08 24° 30° (NNE) 1,095 2.8 -13.2°
Enters shadow 20:22:26 15° 77° (ENE) 1,446 3.0 -13.5°
